sat.trackr.live / text

‹ back to catalog

STARLINK-4751

NORAD 53825 · 2022-114H

PAYLOAD ACTIVE UNKNOWN

§ Identity

Operator
Country
US
Launch date
2022-09-19
Launch site
AFETR
Launch vehicle
Mass (kg)
RCS (m²)

Purposes: comms

External: N2YO · Heavens-Above · Gunter

§ Orbital elements

Epoch: 2026-09-20T06:03:07.939008Z

Period
93.79 min
Inclination
53.1599°
Eccentricity
0.0001291
Mean motion
15.35393775 rev/d
Perigee alt
458.9 km
Apogee alt
460.6 km
Semi-major
6,837.9 km
B*
4.1139e-5
RAAN
140.9200°
Arg perigee
90.6294°
Mean anomaly
269.4857°
Rev number
22,233

§ Raw data

STARLINK-47511 53825U 22114H   26263.25217522  .00001054  00000+0  41139-4 0  99992 53825  53.1599 140.9200 0001291  90.6294 269.4857 15.35393775222337

JSON: /api/v1/satellites/53825 · /tle

For live sub-satellite position, see the globe view (requires WebGL).

§ Visibility from observer

Set your observer location to see the next 7 days of passes ≥ 10°. The values pass through the URL so the page stays shareable.

No JS? Fill the form by hand. The geolocation button needs JavaScript.